User: anonymous   Login
Location: Campillo
(40.8621°N, 4.2488°W)
Time: 16:53:26
(UTC+00:00)
Language:

Cosmos 2278 Rocket - Orbit

View from above orbital plane
View from above orbital plane
View from above satellite
View from above satellite

Ground track
Ground track

The orbit data is extracted from the following two-line orbital elements,

1 23088U 94023B   21215.70077092  .00000100  00000-0  76571-4 0  9993
2 23088  71.0022 355.8352 0004890 306.8810  53.1864 14.14694691408883
Epoch (UTC): 03 August 2021 16:49:06
Eccentricity: 0.0004890
inclination: 71.0022°
perigee height: 840 km
apogee height: 847 km
right ascension of ascending node: 355.8352°
argument of perigee: 306.8810°
revolutions per day: 14.14694691
mean anomaly at epoch: 53.1864°
orbit number at epoch: 40888

The dashed part of the orbit path shows where the satellite is in the earth's shadow,  

DLR